TimePST,TemperatureF,Dew PointF,Humidity,Sea Level PressureIn,VisibilityMPH,Wind Direction,Wind SpeedMPH,Gust SpeedMPH,PrecipitationIn,Events,Conditions,WindDirDegrees,DateUTC
12:08 AM,46.4,46.4,100,30.32,0.8,Calm,Calm,-,N/A,,Mist,0,2013-03-02 08:08:00
1:07 AM,46.4,46.4,100,30.31,0.2,Calm,Calm,-,N/A,Fog,Fog,0,2013-03-02 09:07:00
1:30 AM,46.4,46.4,100,30.30,0.2,Calm,Calm,-,N/A,Fog,Fog,0,2013-03-02 09:30:00
1:53 AM,46.0,46.0,100,30.32,0.2,NW,4.6,-,N/A,Fog,Fog,310,2013-03-02 09:53:00
2:30 AM,46.4,46.4,100,30.27,0.5,Calm,Calm,-,N/A,Fog,Fog,0,2013-03-02 10:30:00
2:53 AM,46.0,46.0,100,30.28,0.2,Calm,Calm,-,N/A,Fog,Fog,0,2013-03-02 10:53:00
3:01 AM,46.4,46.4,100,30.26,0.5,Calm,Calm,-,N/A,Fog,Fog,0,2013-03-02 11:01:00
3:42 AM,46.4,46.4,100,30.26,0.2,WNW,3.5,-,N/A,Fog,Fog,290,2013-03-02 11:42:00
3:50 AM,44.6,44.6,100,30.25,0.2,Calm,Calm,-,N/A,Fog,Fog,0,2013-03-02 11:50:00
3:53 AM,45.0,45.0,100,30.27,0.2,Calm,Calm,-,N/A,Fog,Fog,0,2013-03-02 11:53:00
4:34 AM,46.4,46.4,100,30.26,0.5,Calm,Calm,-,N/A,Fog,Fog,0,2013-03-02 12:34:00
4:46 AM,44.6,44.6,100,30.25,2.5,Calm,Calm,-,N/A,,Overcast,0,2013-03-02 12:46:00
4:53 AM,45.0,45.0,100,30.29,3.0,Calm,Calm,-,N/A,,Overcast,0,2013-03-02 12:53:00
4:55 AM,44.6,44.6,100,30.27,1.8,WNW,3.5,-,N/A,,Overcast,300,2013-03-02 12:55:00
5:07 AM,44.6,44.6,100,30.26,0.8,Calm,Calm,-,N/A,,Overcast,0,2013-03-02 13:07:00
5:26 AM,46.4,46.4,100,30.26,1.2,Calm,Calm,-,N/A,,Overcast,0,2013-03-02 13:26:00
5:48 AM,44.6,44.6,100,30.26,0.5,Calm,Calm,-,N/A,Fog,Fog,0,2013-03-02 13:48:00
5:53 AM,45.0,45.0,100,30.28,0.5,Calm,Calm,-,N/A,Fog,Fog,0,2013-03-02 13:53:00
6:03 AM,46.4,46.4,100,30.26,0.2,Calm,Calm,-,N/A,Fog,Fog,0,2013-03-02 14:03:00
6:19 AM,44.6,44.6,100,30.26,0.2,Calm,Calm,-,N/A,Fog,Fog,0,2013-03-02 14:19:00
6:53 AM,46.0,46.0,100,30.28,0.2,Calm,Calm,-,N/A,Fog,Fog,0,2013-03-02 14:53:00
7:22 AM,46.4,46.4,100,30.25,0.2,Calm,Calm,-,N/A,Fog,Fog,0,2013-03-02 15:22:00
7:51 AM,46.4,46.4,100,30.25,0.5,SE,3.5,-,N/A,Fog,Fog,140,2013-03-02 15:51:00
7:53 AM,46.0,46.0,100,30.27,0.2,SE,3.5,-,N/A,Fog,Fog,140,2013-03-02 15:53:00
8:00 AM,46.4,46.4,100,30.25,0.8,Calm,Calm,-,N/A,,Overcast,0,2013-03-02 16:00:00
8:05 AM,46.4,46.4,100,30.25,2.0,Calm,Calm,-,N/A,,Overcast,0,2013-03-02 16:05:00
8:13 AM,46.4,46.4,100,30.25,10.0,Calm,Calm,-,N/A,,Overcast,0,2013-03-02 16:13:00
8:43 AM,46.4,46.4,100,30.26,1.8,Calm,Calm,-,N/A,,Overcast,0,2013-03-02 16:43:00
8:53 AM,46.0,46.0,100,30.28,1.0,Calm,Calm,-,N/A,,Overcast,0,2013-03-02 16:53:00
9:00 AM,46.4,46.4,100,30.26,0.5,Calm,Calm,-,N/A,Fog,Fog,0,2013-03-02 17:00:00
9:39 AM,46.4,46.4,100,30.26,2.0,NNW,3.5,-,N/A,,Overcast,330,2013-03-02 17:39:00
9:53 AM,46.0,46.0,100,30.29,1.8,NNW,3.5,-,N/A,,Overcast,340,2013-03-02 17:53:00
10:53 AM,46.9,46.9,100,30.30,1.8,NW,5.8,-,N/A,,Overcast,310,2013-03-02 18:53:00
10:58 AM,46.4,46.4,100,30.28,3.0,NW,4.6,-,N/A,,Overcast,320,2013-03-02 18:58:00
11:27 AM,46.4,46.4,100,30.27,2.5,NW,4.6,-,N/A,,Overcast,320,2013-03-02 19:27:00
11:34 AM,46.4,46.4,100,30.27,3.0,NNW,4.6,-,N/A,,Overcast,330,2013-03-02 19:34:00
11:46 AM,46.4,46.4,100,30.26,1.8,NNW,5.8,-,N/A,,Overcast,330,2013-03-02 19:46:00
11:53 AM,46.9,46.9,100,30.28,1.0,NW,5.8,-,N/A,,Overcast,320,2013-03-02 19:53:00
12:07 PM,46.4,46.4,100,30.26,0.8,NW,3.5,-,N/A,,Overcast,310,2013-03-02 20:07:00
12:19 PM,46.4,46.4,100,30.26,1.8,NNW,5.8,-,N/A,,Overcast,340,2013-03-02 20:19:00
12:24 PM,46.4,46.4,100,30.26,3.0,NW,4.6,-,N/A,,Overcast,320,2013-03-02 20:24:00
12:44 PM,46.4,46.4,100,30.25,2.0,NW,4.6,-,N/A,,Overcast,320,2013-03-02 20:44:00
12:53 PM,46.9,46.9,100,30.27,2.0,NW,6.9,-,N/A,,Overcast,320,2013-03-02 20:53:00
1:01 PM,48.2,46.4,93,30.24,1.2,NNW,6.9,-,N/A,,Overcast,330,2013-03-02 21:01:00
1:10 PM,48.2,46.4,93,30.24,3.0,North,6.9,-,N/A,,Overcast,350,2013-03-02 21:10:00
1:27 PM,46.4,46.4,100,30.23,1.8,NNW,8.1,-,N/A,,Overcast,330,2013-03-02 21:27:00
1:42 PM,48.2,46.4,93,30.23,3.0,North,5.8,-,N/A,,Overcast,350,2013-03-02 21:42:00
1:51 PM,48.2,46.4,93,30.22,3.0,North,6.9,-,N/A,,Overcast,360,2013-03-02 21:51:00
1:53 PM,48.0,46.9,96,30.24,3.0,North,5.8,-,N/A,,Overcast,350,2013-03-02 21:53:00
2:03 PM,48.2,46.4,93,30.22,2.5,NNW,6.9,-,N/A,,Overcast,340,2013-03-02 22:03:00
2:15 PM,48.2,48.2,100,30.21,3.0,North,6.9,-,N/A,,Overcast,350,2013-03-02 22:15:00
2:50 PM,48.2,48.2,100,30.21,4.0,NNW,8.1,-,N/A,,Overcast,340,2013-03-02 22:50:00
2:53 PM,48.9,48.0,97,30.23,5.0,NNW,6.9,-,N/A,,Overcast,340,2013-03-02 22:53:00
3:53 PM,48.9,46.9,93,30.23,5.0,NW,10.4,-,N/A,,Overcast,310,2013-03-02 23:53:00
4:34 PM,48.2,46.4,93,30.20,4.0,NNW,9.2,-,N/A,,Overcast,340,2013-03-03 00:34:00
4:53 PM,48.0,46.9,96,30.22,6.0,North,6.9,-,N/A,,Overcast,360,2013-03-03 00:53:00
5:03 PM,48.2,46.4,93,30.20,6.0,North,3.5,-,N/A,,Overcast,360,2013-03-03 01:03:00
5:36 PM,48.2,46.4,93,30.21,2.5,North,3.5,-,N/A,,Overcast,350,2013-03-03 01:36:00
5:53 PM,48.0,46.9,96,30.23,2.5,NNW,5.8,-,N/A,,Overcast,340,2013-03-03 01:53:00
6:11 PM,46.4,46.4,100,30.21,3.0,NNW,4.6,-,N/A,,Overcast,340,2013-03-03 02:11:00
6:21 PM,46.4,46.4,100,30.21,2.0,North,6.9,-,N/A,,Overcast,350,2013-03-03 02:21:00
6:44 PM,46.4,46.4,100,30.20,1.0,NNW,3.5,-,N/A,,Overcast,340,2013-03-03 02:44:00
6:53 PM,46.9,46.9,100,30.22,1.2,Calm,Calm,-,N/A,,Overcast,0,2013-03-03 02:53:00
7:21 PM,46.4,46.4,100,30.19,2.0,Calm,Calm,-,N/A,,Overcast,0,2013-03-03 03:21:00
7:39 PM,46.4,46.4,100,30.19,2.5,Calm,Calm,-,N/A,,Overcast,0,2013-03-03 03:39:00
7:53 PM,46.0,46.0,100,30.21,3.0,Calm,Calm,-,N/A,,Mostly Cloudy,0,2013-03-03 03:53:00
8:08 PM,46.4,46.4,100,30.19,2.0,Calm,Calm,-,N/A,,Mostly Cloudy,0,2013-03-03 04:08:00
8:16 PM,46.4,46.4,100,30.19,1.5,Calm,Calm,-,N/A,,Mostly Cloudy,0,2013-03-03 04:16:00
8:31 PM,46.4,44.6,93,30.19,1.5,Calm,Calm,-,N/A,,Overcast,0,2013-03-03 04:31:00
8:53 PM,46.9,46.9,100,30.21,1.0,Calm,Calm,-,N/A,,Overcast,0,2013-03-03 04:53:00
9:53 PM,46.9,46.9,100,30.21,1.8,Calm,Calm,-,N/A,,Overcast,0,2013-03-03 05:53:00
10:06 PM,46.4,46.4,100,30.19,1.5,NNW,3.5,-,N/A,,Overcast,330,2013-03-03 06:06:00
10:15 PM,46.4,46.4,100,30.19,0.5,NW,4.6,-,N/A,Fog,Fog,320,2013-03-03 06:15:00
10:46 PM,46.4,46.4,100,30.19,1.2,Calm,Calm,-,N/A,,Overcast,0,2013-03-03 06:46:00
10:53 PM,46.9,46.9,100,30.21,2.0,Calm,Calm,-,N/A,,Overcast,0,2013-03-03 06:53:00
11:46 PM,46.4,46.4,100,30.19,1.0,Calm,Calm,-,N/A,,Overcast,0,2013-03-03 07:46:00
11:53 PM,46.9,46.0,97,30.21,1.0,Calm,Calm,-,N/A,,Overcast,0,2013-03-03 07:53:00